Language selection

My Weather Profile Weather Topics  | 

West Coast Haida Gwaii - southern half: Past 24 Hour Conditions

 

Grey Islet

01:00 PM PDT 20 October 2021
Disclaimer

This table is a summary of hourly weather conditions for the past 24 hours.
Please note that these observations might not always be representative of weather conditions over their associated marine area.

Date / Time
(PDT)
Wind(knots) Conditions Visibility(km) Pressure(kPa) Air tempC) Relative humidity(%) Dew pointC)
20 October 2021
13:00 ENE 21 gust 26 N/A N/A 99.8 10 78 6
12:00 ENE 22 N/A N/A 99.8 10 75 6
11:00 ENE 25 gust 30 N/A N/A 99.7 10 74 5
10:00 ENE 24 N/A N/A 99.7 9 77 6
9:00 ENE 24 N/A N/A 99.7 10 73 5
8:00 ENE 25 gust 31 N/A N/A 99.7 10 67 4
7:00 ENE 27 gust 32 N/A N/A 99.7 10 66 4
6:00 ENE 26 gust 31 N/A N/A 99.7 10 66 4
5:00 ENE 21 gust 35 N/A N/A 99.7 10 65 4
4:00 ENE 31 gust 36 N/A N/A 99.7 10 66 4
3:00 ENE 24 gust 37 N/A N/A 99.8 10 68 4
2:00 ENE 26 N/A N/A 99.8 10 65 4
1:00 ENE 29 gust 35 N/A N/A 99.8 10 66 4
0:00 ENE 35 N/A N/A 99.8 10 65 4
19 October 2021
23:00 ENE 35 gust 45 N/A N/A 99.9 10 62 3
22:00 ENE 35 gust 44 N/A N/A 99.9 10 60 3
21:00 ENE 31 gust 42 N/A N/A 99.9 10 61 3
20:00 ENE 37 gust 43 N/A N/A 100.0 10 61 3
19:00 NE 38 gust 45 N/A N/A 100.0 10 62 3
18:00 ENE 38 gust 44 N/A N/A 100.0 10 61 3
17:00 ENE 34 gust 44 N/A N/A 100.2 10 63 3
16:00 NE 33 gust 42 N/A N/A 100.2 10 61 3
15:00 NE 32 gust 38 N/A N/A 100.4 10 65 3
14:00 ENE 35 gust 40 N/A N/A 100.4 9 64 3
13:00 NE 32 gust 39 N/A N/A 100.5 9 67 3

Zoom-in to make a selection

Map of Pacific - North Coast marine weather areas Middle Nomad - 46004 South Nomad - 46036 Dixon Entrance Central - 46145 South Moresby - 46147 Nanakwa Shoal - 46181 North Hecate Strait - 46183 North Nomad - 46184 South Hecate Strait - 46185 West Sea Otter - 46204 West Dixon Entrance - 46205 East Dellwood - 46207 West Moresby - 46208 Sartine Island Cape St.James Kindakun Rocks Langara Island Masset Municipal Airport Rose Spit Sandspit Airport Bella Bella Airport Bella Coola Airport Bonilla Island Cathedral Point Cumshewa Island Grey Islet Holland Rock Lucy Islands Lightstation Prince Rupert Airport
Legend:
buoy Buoy
land station Land Station

Pacific - North Coast Area

Another Region

What we are doing

Date modified: